Simultaneous Nadir Overpasses (SNOs) Predictions

Prediction of SNOs between AQUA and METOP-A Satellite Orbit:

Table of predicted SNOs for the next 14.0 days since TLE Epoch: 2/8/2019
Index Date (AQUA) Time (AQUA) Lat,Lon (AQUA) SZA (AQUA ) Date (METOP-A) Time (METOP-A) Lat,Lon (METOP-A) SZA (METOP-A ) Distance(km) Time Diff (sec)
1 02/09/2019 19:32:21 74.89,-121.30 89.68 02/09/2019 19:31:49 74.88,-121.21 89.68 2.60 32
2 02/09/2019 20:21:48 -74.95, 46.18 90.27 02/09/2019 20:22:29 -74.95, 46.30 90.29 3.35 41
3 02/12/2019 15:06:36 74.85, -54.78 88.72 02/12/2019 15:06:04 74.85, -54.89 88.73 3.37 32
4 02/12/2019 15:56:03 -74.91, 112.72 91.24 02/12/2019 15:56:44 -74.91, 112.62 91.23 3.11 41
5 02/15/2019 10:40:52 74.88, 11.60 87.79 02/15/2019 10:40:18 74.86, 11.56 87.79 2.01 34
6 02/15/2019 11:30:19 -74.92, 179.12 92.17 02/15/2019 11:30:58 -74.93, 179.07 92.17 1.63 39
7 02/18/2019 06:15:07 74.91, 77.97 86.85 02/18/2019 06:14:31 74.88, 78.00 86.82 3.48 36
8 02/18/2019 07:04:34 -74.95,-114.49 93.13 02/18/2019 07:05:11 -74.95,-114.48 93.14 0.42 37
9 02/21/2019 01:49:22 74.89, 144.45 85.82 02/21/2019 01:48:45 74.89, 144.44 85.83 0.36 37
10 02/21/2019 02:38:50 -74.97, -48.12 94.10 02/21/2019 02:39:25 -74.96, -48.03 94.13 3.05 35




NCC Satellite Simultaneous Nadir Overpasses (SNOs) Prediction Service
